| time (UTC) | temp F | wind direction | speed knots | gust knots | rain 1hr in | rain 24hr in | rain mn in | humidity % | barometer mb |
| 20260508013035 | 33 | 260 | 0.0 | 0.0 | 0.00 | 0.00 | 0.00 | 76 | 1021.8 |
| 20260508011522 | 33 | 260 | 0.0 | 0.0 | 0.00 | 0.00 | 0.00 | 74 | 1021.8 |
| 20260508010019 | 33 | 260 | 0.0 | 0.0 | 0.00 | 0.00 | 0.00 | 73 | 1021.7 |
| 20260508004532 | 34 | 260 | 0.0 | 0.0 | 0.00 | 0.00 | 0.00 | 73 | 1021.5 |
| 20260508003018 | 34 | 260 | 0.0 | 0.0 | 0.00 | 0.00 | 0.00 | 77 | 1021.4 |
| 20260508001517 | 35 | 260 | 0.0 | 0.0 | 0.00 | 0.00 | 0.00 | 75 | 1021.1 |
| 20260508000009 | 35 | 260 | 0.0 | 0.0 | 0.00 | 0.00 | 0.00 | 69 | 1021.0 |
| 20260507234507 | 35 | 260 | 0.0 | 0.0 | 0.00 | 0.00 | 0.00 | 67 | 1020.9 |
| 20260507233004 | 36 | 260 | 0.0 | 0.0 | 0.00 | 0.00 | 0.00 | 66 | 1020.8 |
| 20260507231503 | 36 | 260 | 0.0 | 0.0 | 0.00 | 0.00 | 0.00 | 67 | 1020.7 |
| 20260507230106 | 36 | 260 | 0.0 | 0.0 | 0.00 | 0.00 | 0.00 | 65 | 1020.6 |
| 20260507224559 | 37 | 260 | 0.0 | 0.0 | 0.00 | 0.00 | 0.00 | 65 | 1020.5 |
| 20260507223101 | 37 | 260 | 0.0 | 0.0 | 0.00 | 0.00 | 0.00 | 63 | 1020.5 |
| 20260507221557 | 37 | 260 | 0.0 | 0.0 | 0.00 | 0.00 | 0.00 | 60 | 1020.5 |
| 20260507220053 | 37 | 260 | 0.0 | 0.0 | 0.00 | 0.00 | 0.00 | 61 | 1020.3 |
| 20260507214614 | 38 | 260 | 0.0 | 0.0 | 0.00 | 0.00 | 0.00 | 61 | 1020.1 |
| 20260507213104 | 38 | 260 | 0.0 | 0.0 | 0.00 | 0.00 | 0.00 | 60 | 1020.0 |
| 20260507211606 | 38 | 260 | 0.0 | 0.0 | 0.00 | 0.00 | 0.00 | 61 | 1019.9 |
| 20260507210053 | 39 | 260 | 0.0 | 0.0 | 0.00 | 0.00 | 0.00 | 60 | 1019.8 |
| 20260507204552 | 39 | 260 | 0.0 | 0.0 | 0.00 | 0.00 | 0.00 | 59 | 1019.5 |
| 20260507203053 | 40 | 260 | 0.0 | 0.0 | 0.00 | 0.00 | 0.00 | 57 | 1019.4 |
| 20260507201547 | 40 | 260 | 0.0 | 0.0 | 0.00 | 0.00 | 0.00 | 55 | 1019.2 |
| 20260507200044 | 41 | 260 | 0.0 | 0.0 | 0.00 | 0.00 | 0.00 | 52 | 1019.0 |
| 20260507194613 | 42 | 260 | 0.0 | 0.0 | 0.00 | 0.00 | 0.00 | 51 | 1019.0 |
| 20260507193042 | 44 | 266 | 0.0 | 0.0 | 0.00 | 0.00 | 0.00 | 50 | 1018.8 |
| 20260507191544 | 45 | 270 | 0.0 | 0.0 | 0.00 | 0.00 | 0.00 | 50 | 1018.5 |
| 20260507190040 | 48 | 320 | 0.0 | 0.0 | 0.00 | 0.00 | 0.00 | 47 | 1018.4 |
| 20260507184541 | 51 | 320 | 0.0 | 0.0 | 0.00 | 0.00 | 0.00 | 44 | 1018.3 |
| 20260507183039 | 54 | 320 | 0.0 | 0.0 | 0.00 | 0.00 | 0.00 | 43 | 1018.2 |
| 20260507181537 | 56 | 320 | 0.0 | 0.0 | 0.00 | 0.00 | 0.00 | 36 | 1018.2 |
| 20260507180038 | 56 | 320 | 0.0 | 0.0 | 0.00 | 0.00 | 0.00 | 40 | 1018.2 |
| 20260507174542 | 56 | 320 | 0.0 | 2.6 | 0.00 | 0.00 | 0.00 | 34 | 1017.9 |
| 20260507173036 | 57 | 317 | 0.0 | 0.0 | 0.00 | 0.00 | 0.00 | 30 | 1017.8 |
| 20260507171527 | 57 | 317 | 0.0 | 0.0 | 0.00 | 0.00 | 0.00 | 26 | 1017.7 |
| 20260507170023 | 57 | 316 | 0.9 | 4.3 | 0.00 | 0.00 | 0.00 | 27 | 1017.5 |
| 20260507164522 | 56 | 13 | 0.9 | 4.3 | 0.00 | 0.00 | 0.00 | 28 | 1017.4 |
| 20260507163021 | 57 | 333 | 0.0 | 7.0 | 0.00 | 0.00 | 0.00 | 25 | 1017.4 |
| 20260507161518 | 56 | 322 | 0.9 | 5.2 | 0.00 | 0.00 | 0.00 | 26 | 1017.4 |
| 20260507160021 | 56 | 354 | 2.6 | 7.0 | 0.00 | 0.00 | 0.00 | 30 | 1017.3 |
| 20260507154527 | 56 | 338 | 0.9 | 7.0 | 0.00 | 0.00 | 0.00 | 33 | 1017.3 |
| 20260507153029 | 56 | 359 | 1.7 | 9.6 | 0.00 | 0.00 | 0.00 | 31 | 1017.2 |
| 20260507151514 | 56 | 354 | 3.5 | 7.8 | 0.00 | 0.00 | 0.00 | 32 | 1017.2 |
| 20260507150012 | 56 | 335 | 0.9 | 8.7 | 0.00 | 0.00 | 0.00 | 33 | 1017.3 |
| 20260507144511 | 57 | 330 | 1.7 | 7.0 | 0.00 | 0.00 | 0.00 | 32 | 1017.1 |
| 20260507143014 | 56 | 337 | 0.9 | 7.8 | 0.00 | 0.00 | 0.00 | 34 | 1017.0 |
| 20260507141507 | 57 | 335 | 1.7 | 8.7 | 0.00 | 0.00 | 0.00 | 37 | 1016.9 |
| 20260507140010 | 57 | 304 | 3.5 | 7.0 | 0.00 | 0.00 | 0.00 | 42 | 1016.8 |
| 20260507134505 | 56 | 354 | 3.5 | 8.7 | 0.00 | 0.00 | 0.00 | 42 | 1016.7 |
| 20260507133004 | 57 | 305 | 0.9 | 7.0 | 0.00 | 0.00 | 0.00 | 41 | 1016.6 |
| 20260507131503 | 57 | 23 | 2.6 | 7.0 | 0.00 | 0.00 | 0.00 | 41 | 1016.5 |
| 20260507130001 | 57 | 14 | 0.9 | 7.0 | 0.00 | 0.00 | 0.00 | 42 | 1016.5 |
| 20260507124603 | 57 | 346 | 2.6 | 7.0 | 0.00 | 0.00 | 0.00 | 37 | 1016.4 |
| 20260507123059 | 56 | 323 | 0.9 | 5.2 | 0.00 | 0.00 | 0.00 | 38 | 1016.4 |
| 20260507121558 | 56 | 25 | 1.7 | 5.2 | 0.00 | 0.00 | 0.00 | 38 | 1016.4 |
| 20260507120055 | 56 | 354 | 0.0 | 5.2 | 0.00 | 0.00 | 0.00 | 37 | 1016.3 |
| 20260507114557 | 55 | 349 | 2.6 | 5.2 | 0.00 | 0.00 | 0.00 | 40 | 1016.4 |
| 20260507113100 | 55 | 9 | 0.9 | 7.0 | 0.00 | 0.00 | 0.00 | 38 | 1016.3 |
| 20260507111554 | 56 | 312 | 1.7 | 5.2 | 0.00 | 0.00 | 0.00 | 40 | 1016.3 |
| 20260507110052 | 55 | 337 | 0.9 | 7.8 | 0.00 | 0.00 | 0.00 | 41 | 1016.2 |
| 20260507104551 | 55 | 349 | 0.9 | 4.3 | 0.00 | 0.00 | 0.00 | 40 | 1016.1 |
| 20260507103049 | 55 | 10 | 0.9 | 4.3 | 0.00 | 0.00 | 0.00 | 40 | 1016.1 |
| 20260507101549 | 55 | 354 | 1.7 | 4.3 | 0.00 | 0.00 | 0.00 | 42 | 1015.8 |
| 20260507100046 | 55 | 345 | 1.7 | 4.3 | 0.00 | 0.00 | 0.00 | 44 | 1015.7 |
| 20260507094538 | 54 | 16 | 0.9 | 3.5 | 0.00 | 0.00 | 0.00 | 45 | 1015.6 |
| 20260507093040 | 54 | 339 | 0.0 | 4.3 | 0.00 | 0.00 | 0.00 | 47 | 1015.5 |
| 20260507091535 | 53 | 307 | 0.9 | 4.3 | 0.00 | 0.00 | 0.00 | 45 | 1015.6 |
| 20260507090030 | 53 | 8 | 0.0 | 3.5 | 0.00 | 0.00 | 0.00 | 48 | 1015.6 |
| 20260507084527 | 52 | 317 | 0.0 | 4.3 | 0.00 | 0.00 | 0.00 | 50 | 1015.5 |
| 20260507083023 | 51 | 350 | 0.9 | 3.5 | 0.00 | 0.00 | 0.00 | 51 | 1015.4 |
| 20260507081519 | 51 | 350 | 0.0 | 2.6 | 0.00 | 0.00 | 0.00 | 57 | 1015.4 |
| 20260507080013 | 51 | 345 | 0.0 | 2.6 | 0.00 | 0.00 | 0.00 | 58 | 1015.2 |
| 20260507074510 | 49 | 359 | 0.0 | 2.6 | 0.00 | 0.00 | 0.00 | 63 | 1015.1 |
| 20260507073005 | 48 | 318 | 0.0 | 1.7 | 0.00 | 0.00 | 0.00 | 64 | 1015.0 |
| 20260507071501 | 47 | 288 | 0.9 | 3.5 | 0.00 | 0.00 | 0.00 | 65 | 1015.1 |
| 20260507070057 | 46 | 207 | 0.0 | 2.6 | 0.00 | 0.00 | 0.00 | 68 | 1015.0 |
| 20260507064552 | 45 | 220 | 0.0 | 3.5 | 0.00 | 0.00 | 0.00 | 69 | 1014.9 |
| 20260507063048 | 44 | 206 | 0.9 | 2.6 | 0.00 | 0.00 | 0.00 | 69 | 1014.8 |
| 20260507061545 | 43 | 200 | 0.9 | 3.5 | 0.00 | 0.00 | 0.00 | 69 | 1014.8 |
| 20260507060040 | 42 | 213 | 0.9 | 4.3 | 0.00 | 0.00 | 0.00 | 69 | 1014.7 |
| 20260507054535 | 41 | 220 | 0.9 | 5.2 | 0.00 | 0.00 | 0.00 | 72 | 1014.5 |
| 20260507053054 | 40 | 211 | 0.9 | 3.5 | 0.00 | 0.00 | 0.00 | 73 | 1014.5 |
| 20260507051538 | 40 | 195 | 0.0 | 7.0 | 0.00 | 0.00 | 0.00 | 74 | 1014.3 |
| 20260507050032 | 39 | 195 | 0.9 | 4.3 | 0.00 | 0.00 | 0.00 | 74 | 1014.0 |
| 20260507044524 | 38 | 213 | 0.0 | 3.5 | 0.00 | 0.00 | 0.00 | 75 | 1013.9 |
| 20260507043021 | 38 | 188 | 0.9 | 2.6 | 0.00 | 0.00 | 0.00 | 75 | 1013.8 |
| 20260507041516 | 38 | 189 | 1.7 | 4.3 | 0.00 | 0.00 | 0.00 | 75 | 1013.7 |
| 20260507040010 | 37 | 185 | 1.7 | 7.0 | 0.00 | 0.00 | 0.00 | 75 | 1013.7 |
| 20260507034516 | 37 | 181 | 4.3 | 7.0 | 0.00 | 0.00 | 0.00 | 74 | 1013.6 |
| 20260507033013 | 37 | 183 | 0.9 | 4.3 | 0.00 | 0.00 | 0.00 | 73 | 1013.4 |
| 20260507031503 | 37 | 186 | 0.9 | 2.6 | 0.00 | 0.00 | 0.00 | 72 | 1013.2 |
| 20260507030101 | 38 | 195 | 0.9 | 2.6 | 0.00 | 0.00 | 0.00 | 72 | 1013.0 |
| 20260507024605 | 38 | 191 | 0.9 | 1.7 | 0.00 | 0.00 | 0.00 | 72 | 1012.9 |
| 20260507023058 | 37 | 197 | 0.0 | 4.3 | 0.00 | 0.00 | 0.00 | 76 | 1012.9 |
| 20260507021555 | 36 | 150 | 0.0 | 2.6 | 0.00 | 0.00 | 0.00 | 79 | 1012.9 |
| 20260507020052 | 37 | 89 | 0.0 | 0.0 | 0.00 | 0.00 | 0.00 | 78 | 1012.8 |
| 20260507014600 | 38 | 89 | 0.0 | 2.6 | 0.00 | 0.00 | 0.00 | 77 | 1012.6 |